Location: Holbach
(51.5399°N, 10.6036°E)
Time: 10:35:10
(UTC+00:00)

ATLAS CENTAUR R/B - Pass Details

Date: 20 January 2021
Orbit: 471 x 674 km, 64.6° (Epoch: 24 February)

Event Time Altitude Azimuth Distance (km) Brightness Sun altitude
Rises 05:49:14 0° 191° (S) 2,529 4.8 -12.5°
Reaches altitude 10° 05:51:34 10° 178° (S) 1,640 4.0 -12.1°
Maximum altitude 05:54:39 26° 120° (ESE) 955 3.5 -11.7°
Drops below altitude 10° 05:57:44 10° 62° (ENE) 1,643 4.4 -11.2°
Sets 06:00:05 0° 50° (NE) 2,534 5.2 -10.9°
